Showing default

SEDNA-2, 63153

Orbit data source: Space-Track

SEDNA-2, 63153 is a payload satellite owned by AAC ClydeSpace (US) in SSO that was launched on Tue, 14 Jan 2025 UTC via an FALCON 9 launch vehicle from the Air Force Western Test Range (AFWTR). Payload-class satellites include a variety of spacecraft equipped with specific instruments for various scientific and technological missions. These include communications satellites like Starlink; space stations such as the ISS; scientific satellites like the Hubble; Earth observation satellites from companies like Planet Labs, Umbra, and HawkEye 360; GPS; miniature CubeSats for education and research; and military/defense satellites.

Loading next visibility...
Identifier
63153, 2025-009DQ
Orbit
SSO
Country
Flag of USUS
Related business
Manufacturer
AAC ClydeSpace
Mission
Operational Commercial Communications
Bus & Motor
CUBESAT 1X4U, Unknown motor
Mass
~10 kg wet, ~10 kg dry
Launch date (UTC)
2025-01-14 (2 years ago)
Launch vehicle
FALCON 9
Launch site
Air Force Western Test Range (AFWTR)
Object type
Payload
Rocket body
Debris
Shape & HBR
Box, 0.4 m
Radar Cross Section
0.045 m², Medium (>0.1 m² and < 1m²)

Expand to show TLE details & history
Last TLE update: 17 hours ago

TLE from 17 hours ago
0 SEDNA-2
1 63153U 25009DQ  26238.18749834  .00005384  00000-0  31078-3 0  9991
2 63153  97.4501 310.0729 0009280 170.4219 189.7191 15.12714512 88709
Epoch: 2026-08-26T04:29Z
TLE epoch observation values (Epoch: 2026-08-26T04:29:59.856Z)
Latitude
-0°
Longitude
-91.87059°
Altitude
537.323 km
Speed
7.59 km/s
True Right ascension
20h 40m 17s
True Declination
0° 00' 00"
Sunlit
Object was in full shadow at epoch
Visualization orbit readout
Latitude
Unknown
Longitude
Unknown
Altitude
Unknown
Speed
Unknown
Apparent Right ascension
Unknown
Apparent Declination
Unknown
Sunlit
N/A
Visualization observer readout
Local Sidereal Time
13:11:10
Azimuth
Unknown
Elevation
Unknown
Doppler factor
Unknown
Orbital elements
Apogee altitude
531.309 km
Perigee altitude
518.497 km
Semi-major axis
6,903.04 km
Eccentricity
0.00093
Inclination
97.4501°
RAAN
310.0729°
Arg. of periapsis
170.4219°
True anomaly
189.70117°
Mean anomaly
189.7191°
Eccentric anomaly
189.71013°
Mean motion
3.78427 °/min
Orbital period
95.13 mins
BSTAR
0.00031078
Loading maneuver chart data...
Computing Atmospheric mass density...
Loading historical data...
Loading historical data...
Loading historical data...
Loading historical data...
Loading historical data...
Loading historical data...
Loading historical data...

Documentation

Showing up to 5 results
|